INTELSAT 32E (IS-32E) (41945 NORAD) Tracking and Keplerian Element Data

This shows tracking and keplerian element data for the satellite.

Feedback or suggestion? Click here.




ElementValue
Catalog41945
NameINTELSAT 32E (IS-32E)
Epoch Orbit676
Epoch Day348.8880308
Epoch Year2018
RAAN2.1131
Inclination0.0206
Eccentricity5.9E-05
Argument of Perigee188.4524
Mean Anonmoly169.4333
Mean Motion1.0027086
Decay Rate-2.58E-06
L11 41945U 17007B 18348.88803080 -.00000258 00000-0 00000+0 0 9992
L22 41945 0.0206 2.1131 0000590 188.4524 169.4333 1.00270860 6769

Live tracking and technical data element details for INTELSAT 32E (IS-32E) (NORAD 41945). INTELSAT 32E (IS-32E) can be tracked NOW for your location showing map with azimuth and elevation plus other details from your city location.

Track the satellite on the map from your city or location and see movement details for azimuth, elevation, latitude, longitude, range, height, and movement on the map or in text.







IsCatalogInMostPopularTable: catalog: 41945, numindb: 145
Update: records affected: 1



GetName: 41945 INTELSAT 32E (IS-32E)

Hit Count: updated at: Sun, 16 Dec 2018 10:40:07 GMT